Weather History for Juliana Airport, St. Martin

Change the Weather History Date:

Sunday, August 25, 2013

  Actual Average Record
Temperature  
Mean Temperature 84 °F -  
Max Temperature 88 °F 87 °F 89 °F (1997)
Min Temperature 79 °F 78 °F 75 °F (2007)
Cooling Degree Days 18    
Growing Degree Days 34 (Base 50)    
Moisture  
Dew Point 74 °F    
Average Humidity 71    
Maximum Humidity 84    
Minimum Humidity 52    
Precipitation  
Precipitation 0.02 in 0.16 in - ()
Sea Level Pressure  
Sea Level Pressure 29.99 in    
Wind  
Wind Speed 13 mph ()    
Max Wind Speed 20 mph    
Max Gust Speed 22 mph    
Visibility 8.6 miles    
Events Rain    
Averages and records for this station are not official NWS values.
T = Trace of Precipitation, MM = Missing Value Source: Averaged Metar Reports

Daily Weather History Graph

Daily Weather History Graph

Search for Another Location

Airport:

Trip Planner

Search our weather history database for the weather conditions in past years. The results will help you decide how hot, cold, wet, or windy it might be!

Date:

Astronomy

Aug. 25, 2013 Rise Set
Actual Time 5:56 AM AST 6:31 PM AST
Civil Twilight 5:34 AM AST 6:53 PM AST
Nautical Twilight 5:08 AM AST 7:19 PM AST
Astronomical Twilight 4:42 AM AST 7:46 PM AST
Moon 9:53 PM AST (8/25) 10:04 AM AST (8/25)
Length of Visible Light 13h 19m
Length of Day
12h 34m
Waning Gibbous, 76% of the Moon is Illuminated
Aug 25
Waning Gibbous
Aug 28
Last Quarter
Sep 5
New
Sep 12
First Quarter
Sep 19
Full

Hourly Weather History & Observations

Time (AST) Temp. Heat Index Dew Point Humidity Pressure Visibility Wind Dir Wind Speed Gust Speed Precip Events Conditions
12:00 AM 82.4 °F 89.5 °F 75.2 °F 79% 30.01 in 6.2 mi ENE 16.1 mph - N/A   Scattered Clouds
1:00 AM 82.4 °F 89.5 °F 75.2 °F 79% 29.98 in 6.2 mi East 15.0 mph - N/A   Unknown
2:00 AM 83 °F - 74 °F 68% 29.98 in 16 mi East 19.6 mph - -   Partly Cloudy
2:00 AM 82.4 °F 88.2 °F 73.4 °F 74% 29.98 in 6.2 mi East 19.6 mph - N/A   Scattered Clouds
3:00 AM 82.4 °F 88.2 °F 73.4 °F 74% 29.98 in 6.2 mi ENE 15.0 mph - N/A   Scattered Clouds
4:00 AM 80.6 °F 86.2 °F 75.2 °F 84% 29.98 in 6.2 mi East 10.4 mph - N/A Rain Light Rain Showers
5:00 AM 82 °F - 74 °F 69% 29.98 in 16 mi East 11.5 mph - - Rain Light Rain Showers
5:00 AM 82.4 °F 88.2 °F 73.4 °F 74% 29.98 in 6.2 mi East 11.5 mph - N/A   Partly Cloudy
7:00 AM 84.2 °F 90.9 °F 73.4 °F 70% 29.98 in 6.2 mi ENE 11.5 mph - N/A   Partly Cloudy
8:00 AM 80 °F - 74 °F 77% 30.02 in 6 mi ENE 9.2 mph - - Rain Light Rain Showers
8:00 AM 80.6 °F 86.2 °F 75.2 °F 84% 30.01 in 6.2 mi ENE 9.2 mph 21.9 mph N/A   Scattered Clouds
9:00 AM 86.0 °F 95.1 °F 75.2 °F 70% 30.01 in 6.2 mi ENE 17.3 mph - N/A   Scattered Clouds
10:00 AM 87.8 °F 97.6 °F 75.2 °F 66% 30.01 in 6.2 mi ENE 15.0 mph - N/A   Scattered Clouds
11:00 AM 87 °F - 74 °F 56% 30.03 in 19 mi ENE 13.8 mph - -   Partly Cloudy
11:00 AM 87.8 °F 95.6 °F 73.4 °F 62% 30.01 in 6.2 mi ENE 13.8 mph - N/A   Scattered Clouds
12:00 PM 87.8 °F 93.8 °F 71.6 °F 58% 30.01 in 6.2 mi East 13.8 mph - N/A   Scattered Clouds
1:00 PM 87.8 °F 95.6 °F 73.4 °F 62% 29.98 in 6.2 mi ENE 17.3 mph - N/A   Mostly Cloudy
2:00 PM 88 °F - 73 °F 52% 29.98 in 19 mi ENE 13.8 mph - -   Partly Cloudy
2:00 PM 87.8 °F 95.6 °F 73.4 °F 62% 29.98 in 6.2 mi ENE 13.8 mph - N/A   Scattered Clouds
3:00 PM 87.8 °F 93.8 °F 71.6 °F 58% 29.95 in 6.2 mi East 12.7 mph - N/A   Scattered Clouds
4:00 PM 86.0 °F 93.4 °F 73.4 °F 66% 29.95 in 6.2 mi East 17.3 mph - N/A   Scattered Clouds
5:00 PM 85 °F - 74 °F 64% 29.96 in 19 mi ENE 16.1 mph - -   Partly Cloudy
5:00 PM 86.0 °F 95.1 °F 75.2 °F 70% 29.95 in 6.2 mi ENE 16.1 mph - N/A   Scattered Clouds
6:00 PM 84.2 °F 90.9 °F 73.4 °F 70% 29.95 in 6.2 mi East 13.8 mph - N/A   Scattered Clouds
7:00 PM 82.4 °F 88.2 °F 73.4 °F 74% 29.98 in 6.2 mi East 15.0 mph - N/A   Scattered Clouds
8:00 PM 81 °F - 75 °F 78% 30.00 in 25 mi East 13.8 mph - - Rain Light Rain Showers
8:00 PM 80.6 °F 86.2 °F 75.2 °F 84% 29.98 in 6.2 mi East 13.8 mph - N/A   Scattered Clouds
9:00 PM 80.6 °F 86.2 °F 75.2 °F 84% 29.98 in 6.2 mi ENE 15.0 mph - N/A   Scattered Clouds
10:00 PM 82.4 °F 89.5 °F 75.2 °F 79% 30.01 in 6.2 mi East 12.7 mph - N/A   Partly Cloudy
11:00 PM 82 °F - 75 °F 73% 30.01 in 19 mi East 13.8 mph - -   Mostly Cloudy
11:00 PM 82.4 °F 89.5 °F 75.2 °F 79% 30.01 in 6.2 mi East 13.8 mph - N/A   Mostly Cloudy